Location: La Fredeussais
(48.1780°N, 1.3980°W)
Time: 01:58:52
(UTC+00:00)

ISS - Pass Details

Date: 01 August 2021
Orbit: 419 x 423 km, 51.6° (Epoch: 19 September)

Event Time Altitude Azimuth Distance (km) Brightness Sun altitude
Rises 20:09:00 0° 290° (WNW) 2,379 2.1 -4.7°
Reaches altitude 10° 20:11:15 10° 280° (W) 1,510 0.3 -5.1°
Maximum altitude 20:14:17 31° 216° (SW) 764 -2.4 -5.5°
Drops below altitude 10° 20:17:19 10° 152° (SSE) 1,500 -1.5 -5.9°
Enters shadow 20:18:06 - 147° (SSE) 1,796 -1.1 -6.0°
